Satellite: LO-19
Catalog number: 20442
Epoch time:      07332.67848456
Element set:     114
Inclination:      098.1869 deg
RA of node:       327.3575 deg
Eccentricity:    0.0012838
Arg of perigee:   057.5386 deg
Mean anomaly:     302.7023 deg
Mean motion:   14.32016067 rev/day
Decay rate:       -7.9e-07 rev/day^2
Epoch rev:           93223
Checksum:              314

Satellite: AO-16
Catalog number: 20439
Epoch time:      07332.87717784
Element set:    0191
Inclination:      098.2094 deg
RA of node:       318.4768 deg
Eccentricity:    0.0011912
Arg of perigee:   058.1728 deg
Mean anomaly:     302.0608 deg
Mean motion:   14.31777130 rev/day
Decay rate:        1.9e-07 rev/day^2
Epoch rev:           93211
Checksum:              304

/EX
SB KEPS @ AMSAT  $ORB07333.W
Orbital Elements  07333.WEATHER

HR AMSAT ORBITAL ELEMENTS FOR WEATHER SATELLITES
FROM WA5QGD FORT WORTH,TX November 29, 2007
Send Subscribe/unsubscribe to KEPS at 
http://www.amsat.org/mailman/listinfo/keps
BID: ORB07333.W
TO ALL RADIO AMATEURS BT

Satellite: NOAA-18
Catalog number: 28654
Epoch time:      07332.75646738
Element set:    0217
Inclination:      098.8471 deg
RA of node:       271.3946 deg
Eccentricity:    0.0014432
Arg of perigee:   160.1314 deg
Mean anomaly:     200.0449 deg
Mean motion:   14.11115138 rev/day
Decay rate:       3.10e-06 rev/day^2
Epoch rev:           13006
Checksum:              273

Satellite: NOAA-17
Catalog number: 27453
Epoch time:      07332.73780762
Element set:    0698
Inclination:      098.5632 deg
RA of node:       037.9439 deg
Eccentricity:    0.0011208
Arg of perigee:   339.5002 deg
Mean anomaly:     020.5723 deg
Mean motion:   14.23928149 rev/day
Decay rate:        4.1e-07 rev/day^2
Epoch rev:           28213
Checksum:              303

Satellite: NOAA-16
Catalog number: 26536
Epoch time:      07332.88852883
Element set:    0703
Inclination:      099.1384 deg
RA of node:       312.8646 deg
Eccentricity:    0.0011330
Arg of perigee:   071.8252 deg
Mean anomaly:     288.4169 deg
Mean motion:   14.12458709 rev/day
Decay rate:      -1.46e-06 rev/day^2
Epoch rev:           37035
Checksum:              320

Satellite: OKEAN-0
Catalog number: 25860
Epoch time:      07332.56978860
Element set:     223
Inclination:      097.7376 deg
RA of node:       327.2089 deg
Eccentricity:    0.0000918
Arg of perigee:   112.3028 deg
Mean anomaly:     247.8284 deg
Mean motion:   14.73487788 rev/day
Decay rate:        7.7e-07 rev/day^2
Epoch rev:           44970
Checksum:              338

Satellite: FENGYUN1
Catalog number: 25730
Epoch time:      07332.97765362
Element set:    0293
Inclination:      098.7062 deg
RA of node:       310.7417 deg
Eccentricity:    0.0021109
Arg of perigee:   017.2180 deg
Mean anomaly:     342.9696 deg
Mean motion:   14.07646545 rev/day
Decay rate:       1.94e-06 rev/day^2
Epoch rev:           44065
Checksum:              302

Satellite: RESURS
Catalog number: 25394
Epoch time:      07332.75188154
Element set:     795
Inclination:      098.4181 deg
RA of node:       020.5814 deg
Eccentricity:    0.0002454
Arg of perigee:   066.6233 deg
Mean anomaly:     293.5204 deg
Mean motion:   14.24149554 rev/day
Decay rate:        1.3e-07 rev/day^2
Epoch rev:           48777
Checksum:              301

Satellite: NOAA-15
Catalog number: 25338
Epoch time:      07332.65505261
Element set:    0258
Inclination:      098.5411 deg
RA of node:       324.7960 deg
Eccentricity:    0.0009685
Arg of perigee:   270.9313 deg
Mean anomaly:     089.0743 deg
Mean motion:   14.24674661 rev/day
Decay rate:       1.11e-06 rev/day^2
Epoch rev:           49610
Checksum:              304

Satellite: SICH-1
Catalog number: 23657
Epoch time:      07333.76221933
Element set:     237
Inclination:      082.5275 deg
RA of node:       283.0129 deg
Eccentricity:    0.0025757
Arg of perigee:   060.6642 deg
Mean anomaly:     299.7149 deg
Mean motion:   14.81529468 rev/day
Decay rate:        8.3e-07 rev/day^2
Epoch rev:           66054
Checksum:              321

Satellite: NOAA-14
Catalog number: 23455
Epoch time:      07332.77154084
Element set:    0917
Inclination:      098.9717 deg
RA of node:       039.6794 deg
Eccentricity:    0.0009390
Arg of perigee:   000.3280 deg
Mean anomaly:     359.7899 deg
Mean motion:   14.13728597 rev/day
Decay rate:      -2.53e-06 rev/day^2
Epoch rev:           66589
Checksum:              357

Satellite: OKEAN-4
Catalog number: 23317
Epoch time:      07332.73026916
Element set:    0438
Inclination:      082.5360 deg
RA of node:       143.0382 deg
Eccentricity:    0.0023957
Arg of perigee:   071.8257 deg
Mean anomaly:     288.5554 deg
Mean motion:   14.82554582 rev/day
Decay rate:       2.06e-06 rev/day^2
Epoch rev:           70843
Checksum:              306

Satellite: MET-2/21
Catalog number: 22782
Epoch time:      07332.88560948
Element set:    0998
Inclination:      082.5479 deg
RA of node:       271.2478 deg
Eccentricity:    0.0023558
Arg of perigee:   131.6257 deg
Mean anomaly:     228.6939 deg
Mean motion:   13.83621319 rev/day
Decay rate:        2.1e-07 rev/day^2
Epoch rev:           71929
Checksum:              347

Satellite: MET-3/5
Catalog number: 21655
Epoch time:      07332.95028744
Element set:    0426
Inclination:      082.5565 deg
RA of node:       246.5242 deg
Eccentricity:    0.0013327
Arg of perigee:   150.4739 deg
Mean anomaly:     209.7138 deg
Mean motion:   13.17013717 rev/day
Decay rate:        5.1e-07 rev/day^2
Epoch rev:           78309
Checksum:              299

Satellite: NOAA-12
Catalog number: 21263
Epoch time:      07332.75804369
Element set:    0446
Inclination:      098.7604 deg
RA of node:       329.7976 deg
Eccentricity:    0.0012413
Arg of perigee:   354.8002 deg
Mean anomaly:     005.3062 deg
Mean motion:   14.25504615 rev/day
Decay rate:        2.3e-07 rev/day^2
Epoch rev:           85969
Checksum:              300

Satellite: NOAA-11
Catalog number: 19531
Epoch time:      07332.83457952
Element set:    0940
Inclination:      098.8079 deg
RA of node:       059.9153 deg
Eccentricity:    0.0010909
Arg of perigee:   284.5185 deg
Mean anomaly:     075.4767 deg
Mean motion:   14.14856055 rev/day
Decay rate:      -1.68e-06 rev/day^2
Epoch rev:           98943
Checksum:              351

Satellite: NOAA-10
Catalog number: 16969
Epoch time:      07332.68862302
Element set:    0908
Inclination:      098.7370 deg
RA of node:       349.9116 deg
Eccentricity:    0.0013104
Arg of perigee:   050.4029 deg
Mean anomaly:     309.8292 deg
Mean motion:   14.27342044 rev/day
Decay rate:       -6.8e-07 rev/day^2
Epoch rev:           10269
Checksum:              303

/EX
SB KEPS @ AMSAT  $ORB07333.M
Orbital Elements  07333.MISC

HR AMSAT ORBITAL ELEMENTS FOR MANNED AND MISCELLANEOUS SATELLITES
FROM WA5QGD FORT WORTH,TX November 29, 2007
Send Subscribe/unsubscribe to KEPS at 
http://www.amsat.org/mailman/listinfo/keps
BID: ORB07333.M
TO ALL RADIO AMATEURS BT

Satellite: CAPE1
Catalog number: 31130
Epoch time:      07332.96255190
Element set:    0177
Inclination:      098.0700 deg
RA of node:       039.6504 deg
Eccentricity:    0.0102067
Arg of perigee:   236.6277 deg
Mean anomaly:     122.5087 deg
Mean motion:   14.51906108 rev/day
Decay rate:       -5.3e-07 rev/day^2
Epoch rev:           03252
Checksum:              267

Satellite: MAST
Catalog number: 31126
Epoch time:      07332.66382972
Element set:    0195
Inclination:      098.0650 deg
RA of node:       039.8871 deg
Eccentricity:    0.0093993
Arg of perigee:   235.9751 deg
Mean anomaly:     123.2480 deg
Mean motion:   14.53380085 rev/day
Decay rate:       1.24e-06 rev/day^2
Epoch rev:           03274
Checksum:              304

Satellite: FALCON
Catalog number: 30776
Epoch time:      07332.95409430
Element set:    0193
Inclination:      035.4348 deg
RA of node:       293.7567 deg
Eccentricity:    0.0001034
Arg of perigee:   045.7387 deg
Mean anomaly:     314.3415 deg
Mean motion:   15.02810001 rev/day
Decay rate:       3.10e-06 rev/day^2
Epoch rev:           03985
Checksum:              270

Satellite: FCAL
Catalog number: 29667
Epoch time:      07332.91902007
Element set:    0538
Inclination:      051.6325 deg
RA of node:       306.3518 deg
Eccentricity:    0.0008306
Arg of perigee:   274.3034 deg
Mean anomaly:     085.7054 deg
Mean motion:   15.95576020 rev/day
Decay rate:     2.8691e-04 rev/day^2
Epoch rev:           05423
Checksum:              293

Satellite: NCUBE2
Catalog number: 28897
Epoch time:      07332.63783958
Element set:    0414
Inclination:      098.1144 deg
RA of node:       226.0585 deg
Eccentricity:    0.0016958
Arg of perigee:   323.7746 deg
Mean anomaly:     036.2324 deg
Mean motion:   14.59775343 rev/day
Decay rate:       1.72e-06 rev/day^2
Epoch rev:           10336
Checksum:              325

Satellite: CO-58
Catalog number: 28895
Epoch time:      07332.71861297
Element set:     885
Inclination:      098.1160 deg
RA of node:       226.1947 deg
Eccentricity:    0.0017395
Arg of perigee:   321.7739 deg
Mean anomaly:     038.2210 deg
Mean motion:   14.59609349 rev/day
Decay rate:       1.70e-06 rev/day^2
Epoch rev:           11109
Checksum:              331

Satellite: UWE-1
Catalog number: 28892
Epoch time:      07332.67639476
Element set:    0910
Inclination:      098.1133 deg
RA of node:       225.8780 deg
Eccentricity:    0.0017103
Arg of perigee:   322.4139 deg
Mean anomaly:     037.5884 deg
Mean motion:   14.59566386 rev/day
Decay rate:       1.79e-06 rev/day^2
Epoch rev:           11120
Checksum:              316

